Location: Glencliff
(36.1226°N, 86.7183°W)
Time: 00:52:08
(UTC+00:00)

Cosmos 2221 - Pass Details

Date: 25 August 2019
Orbit: 592 x 617 km, 82.5° (Epoch: 18 September)

Event Time Altitude Azimuth Distance (km) Brightness Sun altitude
Exits shadow 09:09:46 29° 152° (SSE) 1,135 3.8 -23.4°
Maximum altitude 09:11:40 50° 93° (E) 792 3.3 -23.1°
Drops below altitude 10° 09:15:55 10° 18° (NNE) 1,985 5.8 -22.4°
Sets 09:18:11 0° 14° (NNE) 2,894 6.7 -22.0°
